Lawrenceville, IL

6:20 AM CST on November 18, 2017 (GMT -0600)
Lawrenceville-Vincennes International

Weather History for KLWV - October, 2013

Change the Weather History Date:

Saturday, October 26, 2013

  Actual Average Record
Temperature  
Mean Temperature 46 °F 54 °F  
Max Temperature 63 °F 66 °F 82 °F (2000)
Min Temperature 29 °F 43 °F 29 °F (2013)
Degree Days  
Heating Degree Days 19 11  
Month to date heating degree days 234 198  
Since 1 July heating degree days 250 237  
Cooling Degree Days 0 0  
Month to date cooling degree days 45 31  
Year to date cooling degree days 1287 1385  
Moisture  
Dew Point 31 °F    
Average Humidity 62    
Maximum Humidity 85    
Minimum Humidity 39    
Precipitation  
Precipitation 0.00 in 0.12 in 1.51 in (1977)
Month to date precipitation 3.26 3.52  
Year to date precipitation 45.86 36.06  
Sea Level Pressure  
Sea Level Pressure 30.12 in    
Wind  
Wind Speed 12 mph (SW)    
Max Wind Speed 25 mph    
Max Gust Speed 30 mph    
Visibility 10 miles    
Events      
T = Trace of Precipitation, MM = Missing Value Source: NWS Daily Summary

Daily Weather History Graph

Daily Weather History Graph

Search for Another Location

Airport or City:

Trip Planner

Search our weather history database for the weather conditions in past years. The results will help you decide how hot, cold, wet, or windy it might be!

Date:

Astronomy

Oct. 26, 2013 Rise Set
Actual Time 7:11 AM CDT 5:56 PM CDT
Civil Twilight 6:43 AM CDT 6:24 PM CDT
Nautical Twilight 6:12 AM CDT 6:55 PM CDT
Astronomical Twilight 5:41 AM CDT 7:26 PM CDT
Moon No Moon Rise 1:26 PM CDT (10/26)
Length of Visible Light 11h 40m
Length of Day
10h 45m
Waning Gibbous, 53% of the Moon is Illuminated
Oct 26
Waning Gibbous
Oct 26
Last Quarter
Nov 3
New
Nov 9
First Quarter
Nov 17
Full

Hourly Weather History & Observations

Time (CDT) Temp. Windchill Dew Point Humidity Pressure Visibility Wind Dir Wind Speed Gust Speed Precip Events Conditions
12:53 AM 30.0 °F 22.4 °F 25.0 °F 82% 30.27 in 10.0 mi South 8.1 mph - N/A   Clear
1:53 AM 32.0 °F - 26.1 °F 79% 30.26 in 10.0 mi Calm Calm - N/A   Clear
2:53 AM 30.9 °F 25.2 °F 25.0 °F 79% 30.24 in 10.0 mi South 5.8 mph - N/A   Clear
3:53 AM 30.0 °F 23.2 °F 25.0 °F 82% 30.22 in 10.0 mi South 6.9 mph - N/A   Clear
4:53 AM 30.0 °F 23.2 °F 26.1 °F 85% 30.21 in 10.0 mi South 6.9 mph - N/A   Clear
5:53 AM 30.0 °F 23.2 °F 26.1 °F 85% 30.21 in 10.0 mi South 6.9 mph - N/A   Partly Cloudy
6:53 AM 37.0 °F 31.0 °F 30.0 °F 76% 30.18 in 10.0 mi South 8.1 mph - N/A   Overcast
7:53 AM 39.9 °F 33.9 °F 30.0 °F 68% 30.16 in 9.0 mi SSW 9.2 mph - N/A   Overcast
8:38 AM 42.8 °F 35.1 °F 28.4 °F 57% 30.14 in 9.0 mi SSW 16.1 mph - N/A   Overcast
8:53 AM 42.1 °F 34.5 °F 28.9 °F 60% 30.14 in 9.0 mi SSW 15.0 mph - N/A   Overcast
9:00 AM 42.8 °F 35.4 °F 28.4 °F 57% 30.13 in 9.0 mi SSW 15.0 mph - N/A   Overcast
9:53 AM 46.0 °F 39.3 °F 30.0 °F 54% 30.11 in 9.0 mi SSW 16.1 mph - N/A   Overcast
10:53 AM 50.0 °F - 30.9 °F 48% 30.08 in 10.0 mi SW 19.6 mph 25.3 mph N/A   Scattered Clouds
11:53 AM 55.0 °F - 33.1 °F 43% 30.06 in 10.0 mi SW 23.0 mph 26.5 mph N/A   Clear
12:53 PM 59.0 °F - 35.1 °F 41% 30.04 in 10.0 mi WSW 21.9 mph 25.3 mph N/A   Clear
1:53 PM 61.0 °F - 36.0 °F 39% 29.99 in 10.0 mi SW 17.3 mph 24.2 mph N/A   Clear
2:53 PM 61.0 °F - 37.0 °F 41% 29.98 in 9.0 mi SW 19.6 mph - N/A   Clear
3:53 PM 62.1 °F - 37.9 °F 41% 29.99 in 9.0 mi WSW 15.0 mph - N/A   Mostly Cloudy
4:53 PM 62.1 °F - 39.9 °F 44% 30.00 in 9.0 mi West 13.8 mph 24.2 mph N/A   Partly Cloudy
5:53 PM 60.1 °F - 39.0 °F 46% 30.02 in 10.0 mi West 10.4 mph - N/A   Scattered Clouds
6:53 PM 54.0 °F - 37.0 °F 53% 30.05 in 10.0 mi NW 9.2 mph - N/A   Scattered Clouds
7:53 PM 52.0 °F - 30.9 °F 45% 30.08 in 10.0 mi NNW 15.0 mph - N/A   Clear
8:53 PM 48.9 °F - 28.9 °F 46% 30.10 in 10.0 mi NNW 10.4 mph - N/A   Clear
9:53 PM 43.0 °F 39.5 °F 28.9 °F 58% 30.12 in 10.0 mi NNW 5.8 mph - N/A   Clear
10:53 PM 41.0 °F 39.0 °F 28.9 °F 62% 30.13 in 10.0 mi WSW 3.5 mph - N/A   Clear
11:53 PM 41.0 °F 37.1 °F 30.0 °F 65% 30.12 in 10.0 mi WNW 5.8 mph - N/A   Clear